Back to catalog

STARLINK-2620

AliveCommunicationsVLEO
NORAD 48453·PAYLOAD·🇺🇸 United States

Launched May 9, 2021 from Cape Canaveral Space Force Station

Loading…

Next Passes (next 24 hours)

TLE

FreshSource: CelesTrak SupGP

Epoch: Sep 14, 2026, 14:19 UTC

1 48453C 21040AB  26257.59701389 -.00011399  00000+0 -36663-3 0  2573
2 48453  53.1608  18.9711 0001204  83.8802 182.6469 15.31702535    11

Track STARLINK-2620 in real time with AllMySat

Download on the App Store